RH
77 77 73 74 75 71 67 67 69 74 74 75 73 76 74 74 76 72 62 68 58 79 50 53 52 55 56 62 69 59 65 69 69 79 78 91 92 62 53 43 51 52 61 68 57 63 59 60 55 61 86 83 76 79
78 77 76 77 73 70 70 70 75 76 76 78 72 69 70 72 77 73 69 65 62 78 55 62 54 48 46 47 58 56 72 84 75 83 72 80 89 73 64 57 51 76 78 72 56 72 73 74 78 85 83 90 90 86
83 79 79 76 72 68 67 72 76 77 76 76 73 72 72 74 76 77 69 71 86 100 67 60 56 47 48 50 46 74 55 57 92 98 96 90 92 76 82 75 66 66 72 86 94 96 96 92 80 85 89 91 84 86
85 88 80 75 72 72 74 75 74 76 77 76 74 72 72 76 74 78 88 80 76 85 84 55 45 54 44 48 52 54 52 49 61 68 81 87 84 65 79 81 79 87 74 88 100 100 98 93 91 79 86 87 90 96
81 82 82 77 73 74 74 75 76 74 77 75 71 69 70 73 75 85 94 79 60 59 78 63 54 47 47 52 57 60 66 66 64 75 84 79 61 74 86 82 87 88 100 96 93 97 96 96 91 84 86 90 96 83
76 74 80 80 75 73 77 78 76 76 77 71 68 69 72 78 76 89 100 98 89 87 99 86 55 57 52 61 59 64 68 72 72 77 78 74 56 72 83 92 93 92 89 99 98 99 97 95 89 81 81 86 90 85
78 78 79 78 74 74 77 79 78 75 72 71 71 74 74 75 92 99 93 81 88 97 100 92 74 58 63 62 66 69 68 72 68 73 73 61 55 61 92 93 94 95 98 97 99 95 90 86 82 74 63 60 60 56
83 82 77 76 74 74 77 80 75 73 73 73 74 75 79 82 93 99 96 91 95 99 99 94 73 70 66 73 77 70 75 75 74 69 68 66 58 71 90 98 95 94 97 91 93 89 80 73 64 59 52 52 55 56
78 78 76 78 77 77 79 78 75 73 72 74 79 87 94 97 100 98 90 89 95 79 85 75 77 84 82 76 78 84 74 89 63 84 72 64 72 87 95 92 92 91 91 91 82 67 61 64 61 57 54 53 56 58
74 76 77 80 80 80 81 77 73 72 75 82 92 99 100 98 89 88 96 98 88 71 70 76 58 85 80 84 87 86 93 77 80 68 70 83 87 83 79 76 76 74 79 83 79 77 68 66 64 62 60 57 57 61
70 72 77 78 80 81 78 73 72 76 91 98 99 99 95 84 78 68 92 81 79 76 61 67 70 76 71 92 89 75 80 76 72 68 77 82 85 82 69 70 68 66 63 67 70 72 66 64 66 65 67 65 65 66
69 74 77 75 75 73 72 72 74 92 97 87 96 94 90 82 77 80 76 72 73 58 72 81 76 70 74 68 87 84 78 83 86 81 85 82 88 76 70 71 68 66 68 70 66 69 70 68 69 71 73 77 81 82
74 76 76 75 72 71 72 77 88 86 84 80 80 94 81 81 91 84 84 76 77 72 87 93 96 88 82 84 98 99 100 97 92 98 86 83 75 70 66 62 67 66 68 71 76 76 74 77 76 78 84 87 85 88
76 74 71 73 75 76 76 84 90 87 82 79 79 95 90 93 87 83 81 88 92 97 95 100 100 100 100 100 100 100 100 95 97 92 83 78 76 77 73 69 68 84 84 83 85 85 88 88 91 89 88 88 88 90
74 75 74 75 78 79 82 91 89 87 75 74 70 80 93 93 98 100 100 91 92 100 100 100 100 99 100 100 95 91 98 93 87 90 87 81 84 85 86 86 89 90 90 90 88 89 90 89 89 90 89 89 86 85
75 76 75 77 79 77 87 91 93 64 64 74 82 95 92 89 93 99 100 95 92 99 100 97 97 100 94 87 89 81 81 80 93 89 86 84 90 89 90 89 89 88 88 89 89 88 88 88 87 87 83 82 82 80
78 94 86 83 86 90 92 77 68 69 78 81 97 98 99 100 94 97 98 94 89 99 100 86 88 86 78 83 84 80 96 94 92 90 84 85 88 91 90 90 90 88 87 86 85 83 84 83 82 74 76 77 69 75
96 90 89 91 93 87 90 74 68 68 89 89 90 95 94 97 97 98 97 88 93 85 79 88 72 92 92 82 87 90 90 92 86 84 83 87 88 88 86 87 87 84 85 84 80 78 77 74 64 62 67 64 64 64
94 94 88 84 67 61 80 76 59 77 89 89 88 86 89 93 86 85 87 74 60 54 61 65 79 81 90 85 89 93 92 84 85 81 84 87 86 88 87 86 85 83 81 78 69 62 66 74 67 58 56 56 59 63
91 85 78 69 60 57 68 72 56 67 83 86 84 84 82 88 87 96 90 67 58 63 74 77 84 87 85 86 80 80 79 74 74 81 85 83 80 85 83 76 71 76 70 73 72 71 62 59 57 58 61 61 69 72
82 69 68 55 56 57 64 66 72 69 78 82 78 75 83 76 85 91 86 63 80 77 82 86 90 92 88 82 74 73 77 70 74 71 73 80 75 68 72 73 72 66 65 66 69 70 70 65 60 58 78 81 80 78
77 71 63 56 60 63 67 61 64 64 67 72 73 64 81 92 92 87 63 79 81 86 83 81 82 78 77 80 77 69 77 74 74 72 74 74 76 73 74 74 70 76 72 77 70 80 76 62 67 70 77 83 79 74
77 74 77 65 74 74 82 75 76 66 82 80 70 76 84 84 76 59 83 73 84 82 76 72 79 68 77 81 75 72 67 62 65 70 75 72 73 82 74 72 72 81 78 67 60 67 72 81 79 81 81 79 81 79
70 83 92 86 76 93 88 90 66 70 72 76 75 84 84 80 64 71 77 73 82 79 77 84 72 77 76 75 69 72 72 65 73 83 74 70 72 72 68 66 67 68 66 60 63 72 72 82 91 75 83 82 82 81
88 92 91 97 84 88 90 89 85 75 86 83 83 85 86 72 80 78 75 81 85 86 84 78 73 68 80 83 79 80 75 64 68 74 79 64 70 66 67 62 66 64 67 81 83 82 84 88 87 85 81 83 80 78
90 91 88 86 91 83 84 91 90 86 83 88 82 78 81 83 86 78 67 85 83 89 90 89 87 80 72 66 75 75 72 63 62 75 66 59 59 74 76 76 76 79 70 82 84 81 79 82 84 81 81 75 90 89
92 93 83 74 78 76 87 85 76 80 86 88 86 92 87 87 82 78 82 81 78 85 75 76 72 70 72 75 75 73 70 69 70 66 70 66 64 65 74 80 74 77 76 78 80 79 77 80 81 82 81 79 79 83
84 84 91 90 85 78 89 88 88 87 88 78 79 91 88 82 81 84 82 84 86 83 83 81 73 71 76 77 80 82 84 84 87 80 76 76 77 82 85 84 84 91 84 86 84 84 81 80 81 81 82 83 83 82
85 84 78 94 87 85 87 85 86 80 75 81 88 86 85 78 85 86 82 82 85 84 89 90 92 89 89 85 85 82 82 77 71 70 70 80 83 86 81 83 83 84 85 83 86 83 80 84 84 84 79 84 84 86
86 80 85 87 86 86 90 86 90 89 77 81 74 71 73 84 87 83 84 88 88 91 89 89 91 87 90 88 91 88 90 90 90 80 78 80 84 88 88 87 87 88 86 83 82 74 78 83 82 84 83 82 81 82
78 82 84 80 88 88 89 92 92 89 88 89 89 87 86 88 88 86 86 88 91 91 92 93 93 88 88 89 86 86 89 93 91 87 85 88 89 90 88 88 88 87 85 83 83 83 83 83 81 81 78 77 76 80
86 84 86 89 91 91 90 88 88 87 88 87 90 91 92 89 90 89 90 90 92 92 90 86 88 90 87 89 89 90 86 92 90 89 85 86 87 88 88 87 90 87 83 81 82 82 78 74 77 75 77 75 78 81
92 89 89 87 91 91 91 85 80 87 86 86 89 89 88 86 89 91 88 90 91 91 88 89 91 89 87 86 88 91 84 90 92 95 96 97 92 89 84 83 83 83 77 83 83 80 71 70 75 76 77 82 84 86
Wind_Speed
21 21 17 15 14 16 14 11 11 13 12 11 10 11 10 11 17 8 4 8 4 3 4 6 5 7 7 5 5 7 7 0 5 5 4 4 4 5 2 2 5 6 6 4 3 3 3 14 2 5 7 5 7 9
21 20 17 16 15 14 14 13 13 13 11 12 10 9 9 8 17 11 3 6 5 3 4 4 9 12 14 11 7 2 5 5 3 5 4 5 4 6 6 3 4 2 6 4 6 6 6 9 9 6 8 7 5 8
10 22 19 17 15 13 14 13 12 13 14 13 11 11 10 11 15 14 4 6 3 2 7 9 9 9 13 16 10 4 3 0 3 0 4 4 5 5 5 5 5 5 8 3 5 10 9 8 9 10 11 11 11 12
15 15 20 18 15 13 13 11 10 14 14 13 12 11 10 10 12 17 6 6 3 0 4 2 2 7 5 10 14 16 13 9 6 6 5 4 4 4 3 5 4 4 8 6 4 6 7 9 9 9 12 11 12 12
17 16 19 19 14 14 13 13 14 12 13 13 11 11 11 11 10 6 6 8 10 6 3 3 7 5 6 7 10 11 11 9 5 4 3 4 4 4 2 3 3 5 4 4 3 5 7 6 9 10 11 11 9 10
17 17 18 20 16 14 14 15 14 14 14 12 11 12 12 12 11 4 2 5 10 5 3 3 2 4 3 4 8 9 6 5 3 3 4 4 4 4 4 1 5 5 5 7 3 10 13 10 10 10 11 10 10 11
18 20 19 18 16 14 15 14 14 15 13 12 12 12 11 11 6 4 2 4 14 7 3 3 4 4 2 3 3 4 6 3 4 3 4 5 5 3 3 1 5 6 7 8 5 8 7 4 6 8 9 9 10 10
19 19 20 17 17 16 16 15 15 13 13 12 11 11 12 8 8 2 2 4 9 4 3 3 3 3 6 4 4 3 4 4 5 3 2 5 3 3 1 5 5 5 6 10 10 10 11 9 8 6 6 6 7 8
20 19 17 16 16 17 16 15 14 12 11 11 7 4 4 1 4 3 17 10 1 3 3 3 3 3 4 3 3 3 4 4 2 4 3 3 3 3 5 6 5 7 5 5 6 7 7 7 6 6 5 5 6 7
16 17 14 15 17 17 16 14 12 10 8 6 6 2 3 2 25 14 2 3 3 4 3 4 2 4 5 4 4 3 3 3 3 4 4 4 2 6 6 6 6 5 6 2 5 5 4 5 6 6 7 7 7 7
16 16 16 16 15 15 15 12 11 2 13 1 3 2 6 20 3 2 3 4 3 4 5 4 8 4 5 4 5 5 3 2 4 4 5 4 3 5 6 7 6 6 6 8 7 5 4 6 6 7 8 8 8 8
18 17 19 17 15 14 14 12 13 7 3 4 6 5 3 2 2 3 4 4 5 4 5 5 5 6 4 3 3 4 4 5 5 6 4 3 5 7 6 6 6 6 6 7 6 7 7 7 7 8 8 8 9 9
20 21 19 17 15 14 13 11 13 17 18 6 3 5 4 3 5 6 7 5 4 4 5 5 5 4 4 3 3 4 6 4 5 4 0 4 7 6 6 6 6 5 6 7 8 8 9 10 9 9 10 8 9 9
20 18 17 17 16 15 14 12 14 20 3 4 6 7 6 5 6 5 3 2 3 2 3 3 3 3 3 5 2 4 2 2 4 4 2 4 7 7 5 4 6 7 7 9 9 10 10 10 10 9 9 8 8 8
17 16 16 16 16 15 15 15 23 2 2 3 2 4 6 1 2 2 2 2 1 1 2 4 3 2 2 2 2 2 3 2 3 3 3 6 7 7 6 6 7 8 7 8 8 9 9 9 9 9 7 7 7 7
18 15 12 16 18 15 14 16 3 2 2 2 2 3 1 3 3 3 2 3 2 2 1 1 3 3 2 1 3 2 2 1 3 3 5 7 7 6 7 7 7 7 8 8 8 8 8 8 8 8 7 6 6 6
18 4 17 18 20 15 25 5 3 4 3 2 2 1 2 2 2 3 1 1 3 3 1 2 3 2 3 2 3 1 2 4 5 6 5 7 8 9 8 8 8 8 9 8 8 7 7 7 7 7 7 6 6 6
3 9 23 27 24 11 3 3 3 3 4 2 1 2 2 1 3 2 1 2 3 0 1 1 3 3 2 3 3 4 4 5 5 6 6 7 9 9 8 10 9 8 8 8 7 7 6 6 5 4 6 6 6 6
18 24 35 29 9 6 5 3 2 4 3 2 3 2 2 3 3 2 1 1 1 1 2 1 2 1 2 1 3 5 8 6 7 7 7 8 9 9 9 9 8 8 8 8 6 4 4 3 3 1 2 4 2 3
32 24 16 8 3 4 5 4 1 3 3 3 2 3 2 2 1 2 2 2 1 1 1 1 2 2 2 3 3 7 7 8 9 9 8 7 7 9 9 8 6 7 5 5 4 3 4 3 3 3 3 2 3 3
16 5 10 5 4 6 5 3 3 2 4 2 3 1 3 1 1 1 1 2 1 2 2 2 3 4 3 4 5 7 8 7 6 6 9 8 7 6 6 5 5 3 3 3 3 3 0 2 2 2 2 3 2 2
4 6 4 4 5 4 4 3 4 4 2 4 4 2 2 2 2 2 1 1 2 2 2 3 5 6 7 8 7 7 9 9 8 8 9 9 7 6 5 4 4 3 3 2 1 1 1 2 1 1 0 2 1 1
6 4 4 4 5 4 4 1 3 3 4 5 3 3 2 2 2 1 1 1 2 1 3 5 6 6 10 9 10 9 7 8 8 7 7 5 5 4 5 4 2 3 3 3 2 2 2 1 2 1 1 1 2 2
7 6 4 4 4 4 2 2 2 3 4 4 3 4 3 2 2 2 2 2 3 5 6 9 8 8 8 8 7 6 5 6 7 6 5 6 5 5 4 4 3 3 2 3 2 2 2 1 0 2 1 2 1 3
4 4 1 3 1 4 4 4 3 2 3 3 4 3 4 3 3 3 3 4 6 6 7 7 7 7 7 7 6 6 4 5 6 7 4 3 5 5 4 3 3 3 1 2 3 2 2 1 2 3 3 3 4 4
4 3 1 3 3 3 5 4 5 4 4 4 3 3 3 3 4 4 2 5 6 6 7 7 7 7 7 6 7 6 5 4 5 5 4 3 2 3 4 4 3 3 1 1 1 2 2 2 3 4 4 3 2 5
4 3 2 3 1 3 3 2 2 2 5 5 5 6 5 4 4 3 3 2 4 4 5 5 5 6 8 7 6 6 5 5 5 6 5 4 4 4 2 0 1 4 3 2 1 2 2 0 1 2 3 3 3 3
3 1 5 3 3 2 4 3 3 4 3 1 4 5 4 1 2 3 3 2 3 6 7 6 6 6 8 7 7 7 7 7 8 8 7 6 5 4 5 5 5 5 4 3 3 2 1 1 1 2 3 5 4 3
3 2 2 4 3 3 2 1 2 2 2 1 3 3 3 3 2 1 2 3 4 6 7 7 6 7 8 7 5 5 6 5 6 6 4 3 3 3 3 3 3 3 2 2 2 1 1 1 3 3 4 4 4 4
3 1 4 3 2 2 2 1 2 2 2 3 2 3 3 2 3 2 2 4 5 5 6 7 7 6 7 7 7 5 3 3 3 1 2 2 2 5 4 3 2 2 1 1 1 0 1 1 2 3 3 3 3 4
1 2 4 3 3 2 3 3 2 2 2 2 2 2 4 3 3 4 3 3 4 6 7 7 6 5 6 6 6 6 4 2 2 3 3 5 6 5 4 3 3 2 2 1 1 1 2 3 3 4 5 5 5 5
1 2 3 4 4 4 2 2 2 2 2 2 2 2 3 3 3 2 2 1 4 5 5 6 7 5 4 5 5 5 6 7 6 5 6 5 5 5 4 3 2 1 1 1 2 2 3 4 4 4 5 6 6 7
3 2 2 4 5 5 3 3 2 3 2 2 3 1 1 1 4 3 3 3 1 5 6 6 7 7 7 7 8 7 8 7 8 8 7 7 6 4 3 3 2 2 1 1 2 2 4 4 4 5 5 6 6 7
Wind_Direction
198 190 196 191 191 170 197 204 201 189 190 191 201 202 203 208 177 185 153 194 195 214 270 228 235 249 243 246 280 347 306 68 305 303 305 335 329 32 287 95 162 194 189 189 208 246 244 1 44 341 353 341 10 41
188 197 191 186 192 196 199 206 208 191 196 184 183 188 192 183 170 185 185 180 204 265 323 319 279 269 254 266 295 278 300 301 323 298 354 300 317 356 349 143 32 95 9 348 345 30 57 36 55 35 20 59 43 71
225 193 188 185 191 202 200 198 204 196 181 185 191 198 198 196 182 189 193 143 155 271 264 245 255 248 231 239 234 245 199 313 228 360 318 300 306 331 353 37 323 83 17 10 316 34 46 45 64 56 55 69 66 71
191 199 189 188 186 193 197 192 201 191 187 189 196 202 209 212 211 196 181 175 177 256 282 269 255 246 239 223 218 225 261 290 291 302 304 285 297 12 332 329 330 4 314 347 76 120 101 56 52 66 72 73 74 72
202 189 185 187 189 190 190 181 180 192 200 192 200 209 215 224 232 216 208 195 201 228 294 304 299 265 236 208 207 218 233 245 261 279 257 272 303 318 315 277 60 3 357 316 13 16 75 57 52 58 71 71 74 86
198 192 192 189 191 188 187 190 192 197 196 201 210 215 226 227 220 213 257 192 203 197 234 241 7 240 193 205 214 206 205 210 225 226 258 253 307 291 299 4 67 40 25 343 82 79 93 90 66 65 76 76 73 73
191 188 188 193 190 193 192 200 186 191 201 207 213 226 237 237 213 185 241 37 180 137 187 225 246 166 182 174 164 183 188 205 234 241 235 271 289 243 267 17 75 65 43 47 117 122 91 23 87 77 77 81 85 83
181 181 201 203 205 202 196 188 183 196 209 212 222 238 250 269 100 171 195 173 116 115 203 214 234 230 182 192 176 183 175 215 214 256 243 254 271 240 247 90 55 51 72 61 58 72 94 115 109 96 94 93 89 83
192 195 190 188 191 191 184 180 189 196 217 219 241 165 88 128 178 128 125 111 111 256 195 205 231 170 166 201 121 175 203 213 243 241 232 244 233 241 64 102 66 30 12 91 106 100 101 101 102 95 82 78 85 85
181 184 190 193 178 176 173 176 192 191 222 180 135 163 145 141 117 117 112 161 198 195 223 241 196 183 192 176 173 194 196 236 231 207 168 218 103 95 87 84 74 53 29 319 149 137 123 104 95 82 77 72 84 91
185 186 184 171 171 171 174 178 186 207 136 115 133 99 105 145 205 180 140 193 163 217 198 214 205 162 201 179 177 227 190 214 244 154 214 199 156 116 115 94 77 66 62 64 67 61 60 111 119 112 99 93 95 98
186 182 174 174 182 182 187 189 195 174 184 131 98 105 109 189 172 182 180 168 220 232 168 174 190 216 157 205 207 175 234 186 251 145 222 218 90 121 117 92 75 68 71 72 69 88 94 97 104 112 110 104 98 99
181 179 175 181 185 189 192 178 129 149 129 137 111 156 190 155 200 206 188 195 208 190 180 163 158 165 152 192 202 208 224 198 131 205 70 52 122 130 128 119 99 90 90 91 81 78 83 86 81 99 99 95 98 88
177 177 178 184 187 190 184 167 165 155 109 179 170 156 216 182 225 192 209 165 73 142 167 161 132 189 171 182 248 243 77 230 201 216 106 124 137 128 104 99 111 96 95 99 97 97 97 97 96 94 97 106 110 104
179 182 187 189 187 183 153 165 176 63 245 164 174 196 199 78 63 84 85 130 40 324 159 143 136 210 150 205 220 266 208 202 357 56 94 125 127 123 119 119 119 112 107 104 107 104 102 103 102 99 96 100 103 106
179 184 197 186 178 179 188 169 138 242 60 70 73 166 137 181 154 163 134 128 2 298 189 201 137 163 145 229 197 202 244 201 103 87 112 120 117 112 112 105 107 116 119 118 117 116 114 113 112 108 109 106 109 113
176 194 182 178 171 196 133 109 156 61 81 94 104 63 55 42 105 97 42 50 338 246 181 198 173 98 129 182 191 218 1 64 121 126 116 109 130 129 129 129 132 133 127 123 121 118 113 115 127 135 133 140 146 135
221 203 172 148 121 99 79 51 92 87 85 87 197 104 75 28 109 108 41 341 280 150 234 109 141 177 201 194 160 128 116 116 106 115 118 122 123 132 140 136 140 137 132 130 128 131 139 158 156 139 140 147 151 154
132 126 129 134 130 109 98 81 23 95 77 99 112 109 81 91 71 31 309 321 24 7 138 156 161 171 137 104 110 128 138 142 135 125 116 126 137 139 141 134 139 138 134 144 152 133 101 68 55 105 148 182 216 177
129 123 130 103 61 90 96 83 72 102 138 117 125 123 85 63 47 12 30 26 26 279 89 59 61 65 56 89 103 138 137 133 138 134 132 135 138 148 148 154 139 138 142 132 123 143 134 121 77 56 29 7 262 243
106 109 64 68 65 55 76 110 82 78 119 114 120 153 96 114 88 51 65 346 74 37 109 63 98 89 64 95 123 127 132 145 144 146 141 139 146 141 143 133 140 139 145 139 141 121 177 55 62 55 49 65 50 17
94 73 77 45 81 81 87 36 102 121 101 118 142 136 128 157 136 85 353 58 68 75 60 121 126 132 127 122 122 120 119 116 109 104 106 128 142 147 149 147 161 148 144 149 159 156 107 77 52 91 113 94 235 33
96 58 60 52 87 64 98 204 119 130 130 146 156 141 147 151 96 187 119 51 84 109 143 129 121 107 111 114 110 108 119 130 124 121 131 116 111 116 131 137 139 168 173 147 137 148 122 67 122 263 160 236 299 283
36 50 39 49 57 101 134 106 121 116 125 172 165 154 165 147 155 216 209 164 120 144 141 140 136 124 118 129 123 118 116 115 113 113 125 136 132 120 120 114 107 88 40 119 144 137 140 134 251 229 241 267 292 301
87 32 14 92 100 129 129 141 133 140 138 160 150 164 164 176 201 210 217 147 164 159 153 157 154 153 140 120 121 110 124 139 138 129 120 117 116 129 125 113 100 80 122 184 191 215 201 229 236 257 261 280 302 297
93 37 7 132 136 163 163 144 176 157 140 157 165 114 177 191 202 221 144 157 161 160 162 162 153 142 136 134 134 136 120 118 130 127 117 135 142 167 163 172 179 147 100 359 302 282 281 264 263 259 269 262 227 289
139 148 98 28 11 121 120 90 118 175 174 177 164 174 182 211 211 112 116 139 154 143 143 142 154 148 133 122 103 94 85 68 59 81 98 87 63 33 20 275 223 68 107 74 34 338 327 265 282 295 310 309 311 307
88 119 168 119 98 19 127 130 169 172 148 145 167 186 202 265 106 69 38 52 125 109 97 77 70 100 113 110 113 114 98 103 105 106 105 90 72 69 72 75 68 68 70 41 62 63 41 40 348 315 318 317 323 313
85 85 124 86 88 74 70 125 138 101 27 236 164 138 135 60 25 356 59 127 138 131 117 112 96 102 97 92 84 101 128 141 139 140 146 130 156 130 90 91 92 72 67 113 142 80 42 344 340 329 329 320 332 311
106 3 95 80 93 117 78 1 96 85 39 41 86 122 120 96 37 357 154 153 154 131 116 122 132 137 135 134 128 119 77 43 22 36 160 155 104 115 134 123 111 89 36 14 339 54 33 298 248 241 292 297 299 315
84 126 96 85 100 103 95 101 121 126 84 69 32 83 97 110 111 49 49 73 115 129 131 128 120 130 136 141 147 145 147 101 64 65 74 101 116 119 115 102 90 71 53 35 19 349 336 304 319 320 316 322 326 310
77 91 137 129 132 139 193 186 110 104 115 145 107 126 149 159 106 102 41 127 142 141 124 135 135 130 102 89 78 69 63 112 117 114 112 110 105 102 107 101 99 56 39 34 29 13 349 338 327 331 321 321 326 321
126 123 100 125 142 170 160 168 117 133 150 145 123 107 78 35 122 101 104 12 2 133 130 104 96 102 99 94 102 101 92 94 97 90 85 84 94 107 111 109 101 91 87 25 17 349 336 329 321 326 319 317 316 319